Home   Weather   Thompson   Past weeks

Flag for Canada Past Weather in Thompson, Manitoba, Canada — Yesterday and Last 2 Weeks

Now
45 °F

Overcast.


Feels Like: 41 °F
Forecast: 38 / 58 °F
Wind: 6 mph from Southwest

Location: Thompson

Current Time: Sep 28, 2016 at 1:55:38 AM

Latest Report: Sep 28, 2016 at 1:00 AM


Visibility: 15 mi

Pressure: 30.09 "Hg

Humidity: 87%

Dew Point: 41 °F

Location of ThompsonLocation

Past Weather in Thompson — Graph

°F

Thompson Temperature Yesterday

Maximum temperature yesterday: 48 °F (at 2:00 PM)
Minimum temperature yesterday: 41 °F (at 4:00 AM)
Average temperature yesterday: 44 °F

High & Low Weather Summary for the Past Weeks

 TemperatureHumidityPressure
High72 °F (Sep 17, 3:00 PM)100% (Sep 13, 12:00 AM)30.34 "Hg (Sep 13, 12:00 AM)
Low27 °F (Sep 21, 7:00 AM)30% (Sep 23, 2:00 PM)29.31 "Hg (Sep 19, 3:00 AM)
Average50 °F76%29.89 "Hg
* Reported Sep 13 12:00 AM — Sep 28 12:00 AM, Thompson, Weather by CustomWeather, © 2016

Note: Actual official high and low records may vary slightly from our data, if they occured in-between our weather recording intervals... More about our weather records

Advertising

Thompson Weather History for the Previous 24 Hours

Scroll right to see more
 ConditionsComfort  
Time TempWeatherWind HumidityBarometerVisibility
12:00 AM
Wed, Sep 28
45 °FOvercast.3 mph87%30.08 "Hg15 mi
11:00 PM
Tue, Sep 27
45 °FOvercast.5 mph87%30.08 "Hg15 mi
10:00 PM46 °FMostly cloudy.3 mph82%30.06 "Hg15 mi
9:00 PM46 °FOvercast.No wind82%30.06 "Hg15 mi
8:00 PM46 °FMostly cloudy.2 mph82%30.06 "Hg15 mi
7:00 PM46 °FOvercast.No wind82%30.05 "Hg15 mi
6:00 PM46 °FOvercast.2 mph82%30.04 "Hg15 mi
5:00 PM48 °FMostly cloudy.No wind76%30.03 "Hg15 mi
4:00 PM48 °FOvercast.5 mph71%30.03 "Hg15 mi
3:00 PM46 °FOvercast.6 mph76%30.03 "Hg15 mi
2:00 PM48 °FOvercast.6 mph71%30.03 "Hg15 mi
1:52 PM46 °FOvercast.7 mph71%30.04 "Hg15 mi
1:00 PM46 °FDrizzle. Overcast.3 mph71%30.03 "Hg15 mi
12:00 PM45 °FDrizzle. Overcast.6 mph76%30.04 "Hg15 mi
11:00 AM43 °FDrizzle. Overcast.9 mph81%30.03 "Hg15 mi
10:00 AM41 °FDrizzle. Partly sunny.12 mph81%30.05 "Hg15 mi
9:00 AM41 °FOvercast.9 mph81%30.04 "Hg15 mi
8:00 AM41 °FPartly sunny.7 mph87%30.03 "Hg15 mi
7:00 AM41 °FOvercast.8 mph87%30.02 "Hg15 mi
6:00 AM41 °FOvercast.10 mph81%30.01 "Hg15 mi
5:00 AM41 °FOvercast.9 mph81%30.01 "Hg15 mi
4:00 AM41 °FOvercast.9 mph81%30.01 "Hg15 mi
3:00 AM43 °FOvercast.3 mph81%29.99 "Hg15 mi
2:00 AM43 °FOvercast.9 mph81%29.98 "Hg15 mi
1:00 AM45 °FOvercast.10 mph76%29.98 "Hg15 mi
Weather by CustomWeather, © 2016

See weather overviewHow to use our weather pages